Theta_e
295 294 295 295 295 295 295 295 296 296 296 296 297 298 299 299 300 301 302 303 303 303 303 303 303 305 305 303 307 305 306 299 299 301 302 304 305 305 307 306 300 307 314 306 308 307 309 309 307 308 305 303 302 300
295 294 295 295 295 295 295 295 295 296 296 296 297 297 298 298 300 300 302 303 303 300 301 302 302 302 303 304 304 305 304 299 301 301 304 307 307 307 308 309 306 314 312 313 310 311 308 308 306 306 305 302 301 299
295 295 294 294 295 295 295 295 295 295 296 296 297 297 298 298 299 301 303 304 301 300 301 298 299 301 302 303 303 301 297 301 299 298 301 306 307 308 309 309 307 310 305 308 307 308 307 307 306 305 303 301 300 299
295 295 295 294 294 294 294 295 295 295 296 296 297 297 298 299 302 303 303 303 302 300 301 299 302 301 301 302 302 303 301 300 298 299 304 308 308 306 310 307 311 310 306 307 308 308 307 306 305 304 301 300 300 300
295 295 295 294 294 294 294 294 295 295 296 296 297 297 299 300 301 301 302 303 302 302 303 303 300 300 301 302 301 301 301 299 303 305 307 308 308 308 308 310 311 307 308 309 311 307 307 305 304 302 301 300 300 301
295 295 295 295 294 294 294 294 295 295 296 296 297 297 299 301 300 300 301 300 301 301 299 300 297 299 301 301 299 300 301 297 299 305 307 307 305 308 312 312 306 306 305 308 309 306 306 306 305 301 300 300 300 299
295 295 295 295 294 294 295 294 294 295 296 296 296 296 298 300 299 299 299 300 300 300 300 301 302 298 300 301 301 299 300 301 302 305 307 308 308 309 312 312 304 306 307 307 306 306 307 306 303 301 300 300 299 300
295 295 295 295 295 295 294 293 294 295 295 296 295 297 296 298 298 298 299 300 301 300 301 303 302 298 299 301 303 300 303 303 304 307 309 310 310 310 313 310 307 307 307 307 307 306 306 304 302 300 300 299 300 300
293 294 295 295 295 294 293 293 295 295 295 294 294 296 297 297 297 299 300 300 300 301 303 303 303 302 298 299 299 306 305 308 305 310 311 311 313 315 312 310 307 309 308 308 307 307 306 306 302 300 300 300 301 301
292 292 293 293 293 293 294 294 295 295 294 294 297 297 294 298 298 298 300 301 300 300 301 303 302 302 300 302 302 300 310 313 314 312 312 313 314 311 308 306 306 307 306 306 307 308 308 307 302 300 301 300 300 301
293 293 293 293 294 294 294 294 294 295 293 296 296 297 297 296 298 298 300 302 301 302 301 302 301 303 302 303 304 299 301 310 316 310 315 311 309 307 305 304 303 305 305 305 305 305 304 302 301 300 300 300 300 300
293 293 293 293 293 294 294 294 294 295 294 294 294 295 295 298 299 299 301 302 304 303 302 303 303 301 302 302 302 302 304 307 313 308 315 312 308 305 305 304 303 305 304 305 304 303 302 301 300 300 300 300 300 300
293 293 293 293 293 293 294 294 294 295 294 294 294 296 296 295 299 300 300 300 304 303 302 302 302 302 301 303 304 305 307 309 310 315 313 310 306 305 304 303 305 305 305 305 303 302 302 301 300 299 300 299 300 300
292 292 293 293 293 293 293 293 293 294 294 293 293 292 294 296 298 297 298 300 302 301 300 297 299 301 303 309 310 311 312 312 315 315 315 311 308 305 303 303 305 305 305 304 304 303 301 300 300 300 300 299 300 299
292 292 292 293 292 293 293 293 293 294 293 294 293 294 296 295 294 296 296 296 297 295 294 295 298 301 305 308 310 313 315 317 315 315 313 309 306 304 303 304 304 306 305 304 303 303 302 301 301 301 300 299 300 300
292 292 292 292 292 292 292 293 293 293 294 293 294 293 293 295 295 294 295 295 293 294 293 294 296 302 306 309 313 314 315 316 315 314 309 304 304 302 303 304 305 307 307 304 304 303 302 302 301 301 301 301 301 300
292 292 292 292 292 292 292 293 293 292 292 293 293 293 291 292 293 292 292 291 292 292 294 294 298 299 304 306 314 313 313 308 309 310 304 302 302 301 303 305 306 308 302 303 304 303 303 302 302 302 301 300 300 300
292 291 292 293 293 292 292 293 293 294 294 293 295 294 291 291 292 292 291 289 291 292 295 297 298 300 299 304 308 310 309 307 308 306 303 301 301 304 305 305 307 302 301 301 303 303 303 303 302 301 301 300 299 299
292 292 292 292 292 292 293 294 294 295 294 292 292 292 293 293 294 294 294 291 292 292 296 298 298 300 299 301 305 304 302 302 305 307 304 302 305 307 308 306 303 301 301 300 301 301 303 303 302 302 302 300 299 299
292 292 292 292 292 293 294 294 292 296 295 293 293 294 294 295 295 295 295 295 294 296 296 297 297 297 300 302 301 301 301 303 306 307 305 304 308 308 307 304 302 301 301 300 300 301 300 300 301 302 303 301 300 299
293 292 292 292 293 294 294 296 297 295 295 296 296 297 297 297 296 297 297 297 297 297 296 296 296 297 299 300 301 301 303 305 306 305 304 306 306 307 306 304 303 302 301 300 300 299 300 300 300 301 302 301 300 300
293 293 294 293 294 294 295 294 294 296 297 298 299 299 299 300 299 298 296 298 298 296 295 296 297 298 299 300 301 301 303 306 305 302 303 303 305 306 306 304 305 303 302 301 301 301 300 300 301 301 301 300 299 299
293 294 293 293 296 296 295 295 297 298 298 300 301 302 302 301 299 298 300 299 297 296 297 297 297 298 299 300 302 305 307 306 304 302 302 302 304 305 305 306 304 303 302 302 302 302 301 301 301 300 300 299 299 298
293 294 297 297 296 296 297 300 300 301 302 302 303 304 304 302 300 303 305 305 303 299 299 299 299 300 302 304 306 309 308 305 302 302 303 302 304 304 305 303 304 303 304 303 303 302 302 301 301 300 300 299 298 298
294 295 297 297 299 299 299 301 303 304 304 304 305 307 310 305 308 308 309 306 304 304 303 302 302 303 305 309 308 306 304 304 302 300 302 303 305 303 303 304 305 305 304 303 302 303 302 301 300 300 300 300 299 298
296 295 296 297 299 300 301 302 304 305 305 306 309 308 309 310 310 311 310 306 305 305 306 306 306 308 310 311 308 303 303 304 304 302 302 303 304 303 302 303 304 305 304 304 303 302 302 302 301 300 299 299 300 299
294 297 296 296 298 300 302 304 304 305 307 310 310 310 311 313 312 311 308 307 307 305 308 308 309 310 308 308 309 307 305 305 305 305 304 304 304 304 306 305 305 305 304 304 304 303 303 302 301 300 300 299 300 300
297 297 300 301 300 301 302 304 305 308 310 308 309 312 310 310 312 309 308 308 307 307 309 309 310 309 309 310 309 307 306 306 306 306 306 306 305 306 307 307 307 306 307 307 307 307 304 303 302 301 301 301 300 301
297 298 300 302 303 304 304 304 303 301 303 308 313 311 311 312 310 308 308 308 307 307 306 306 307 309 310 310 309 308 308 308 307 306 306 306 307 308 308 308 307 309 309 308 307 306 305 303 303 303 303 303 303 302
299 299 301 302 305 308 308 308 308 307 305 305 305 309 309 309 309 308 307 307 306 305 306 308 309 308 307 307 306 308 309 310 309 308 306 306 308 309 309 309 310 310 309 307 308 308 306 303 304 305 305 304 303 303
299 300 302 305 306 308 307 305 304 304 303 305 306 308 308 307 308 308 307 305 305 307 307 306 306 307 308 308 307 306 306 309 310 310 310 310 309 309 309 309 308 308 308 308 308 307 306 307 306 305 304 304 304 304
301 303 306 306 308 307 307 304 304 305 305 306 305 305 307 308 309 306 308 307 307 306 306 307 307 306 308 308 309 309 309 308 310 310 310 310 309 308 308 309 309 309 309 308 308 308 308 308 306 305 305 306 306 306
302 304 306 307 306 309 309 307 306 306 305 306 306 305 306 308 309 307 307 306 306 306 306 306 306 307 307 308 308 308 307 308 309 309 309 308 308 308 308 307 307 306 306 306 306 307 307 307 307 306 306 305 303 303
Wind_Speed
11 11 11 12 12 13 16 17 17 18 19 19 19 19 19 18 16 14 12 14 7 3 11 15 18 12 7 3 5 5 5 3 3 2 2 2 2 3 2 4 3 3 3 3 3 3 6 7 3 2 6 8 17 19
10 11 11 12 13 14 16 18 18 18 19 20 21 21 21 19 18 16 10 10 12 6 7 31 34 36 30 29 11 4 3 3 4 2 3 2 3 3 3 4 3 3 5 2 5 5 3 8 9 10 8 13 15 16
12 11 12 13 14 14 15 18 20 19 20 21 21 22 23 22 21 13 19 18 6 3 8 6 8 16 11 18 26 5 2 6 4 4 3 3 6 2 3 5 3 4 3 4 1 5 7 7 9 10 4 12 16 17
14 14 13 13 14 15 16 18 21 20 20 20 22 23 24 23 17 12 8 6 5 5 3 6 8 25 28 16 23 34 10 3 4 2 2 3 2 5 3 5 6 5 4 4 5 9 9 6 5 10 9 11 15 17
17 16 15 15 15 15 16 20 21 19 20 20 21 23 24 15 11 12 12 7 7 3 3 8 31 8 10 8 22 25 18 5 3 2 3 3 2 3 3 4 5 5 6 3 4 3 3 7 6 7 10 12 13 14
18 16 16 15 15 16 18 22 20 19 19 19 20 20 16 13 12 11 1 2 4 2 3 5 7 6 15 13 8 12 14 3 3 3 3 3 3 3 3 3 6 8 6 8 4 3 5 9 4 6 9 11 11 11
17 17 16 16 16 17 19 21 18 18 18 19 20 19 15 11 11 4 5 5 12 4 2 5 5 5 9 3 2 2 7 3 3 3 3 3 3 5 3 8 6 6 6 6 4 2 6 3 2 6 9 9 12 11
15 17 17 16 17 18 19 19 17 17 18 19 20 21 13 14 13 8 4 6 5 5 4 3 5 5 5 4 2 2 3 2 3 3 2 3 2 4 5 12 6 3 2 2 3 6 9 1 1 6 8 7 7 9
14 14 14 14 16 17 18 16 15 16 18 20 21 17 8 2 3 4 14 14 11 8 2 2 3 5 5 3 3 2 3 3 3 3 3 4 4 6 10 10 6 4 3 4 2 2 3 3 4 4 6 7 7 9
12 13 14 14 15 14 13 13 14 16 17 18 7 4 2 4 14 18 1 2 2 2 3 3 2 4 3 3 3 3 3 3 3 4 2 4 5 13 7 4 4 5 6 3 2 3 4 3 4 3 5 6 7 7
12 11 11 11 12 12 12 12 12 13 9 4 5 2 9 16 5 2 3 2 2 3 3 2 2 3 2 4 3 3 3 3 2 3 3 3 3 2 2 6 5 6 5 2 1 2 2 5 4 2 5 7 8 9
12 12 12 12 11 11 10 11 10 7 5 6 9 9 6 3 2 2 3 2 4 2 2 2 5 4 3 2 2 3 3 1 5 4 2 3 3 0 3 4 5 5 4 3 4 7 7 6 8 5 5 7 10 11
12 12 13 12 11 10 9 9 8 6 7 4 1 3 1 2 3 4 4 3 3 2 2 3 5 3 3 3 4 2 3 5 2 2 3 4 1 2 3 5 5 4 2 3 8 12 10 8 10 6 7 10 12 15
13 14 13 12 11 11 9 8 6 3 2 1 1 5 4 4 4 4 3 1 1 3 4 4 4 3 2 2 3 4 4 3 3 2 3 2 1 3 3 4 4 5 6 9 9 11 11 10 9 8 10 12 15 16
14 14 14 13 13 12 10 8 5 3 2 3 3 5 6 4 3 2 0 3 3 2 4 4 3 2 3 4 4 4 3 3 3 2 3 1 3 4 4 4 5 4 5 6 9 9 9 9 12 11 13 13 13 17
13 13 15 15 14 13 10 7 4 4 3 4 6 5 4 4 5 2 2 3 1 2 3 2 3 3 4 4 4 5 3 1 5 4 5 1 4 4 4 4 3 1 3 9 11 12 11 9 10 10 14 12 12 18
11 7 6 8 5 4 7 6 7 5 5 6 5 5 3 3 5 3 4 4 3 2 1 2 3 6 4 4 3 3 3 3 9 7 3 4 2 4 5 4 2 3 8 12 13 13 11 10 10 12 12 13 16 18
12 8 7 9 7 5 4 8 6 5 9 8 6 7 4 4 7 7 4 3 4 4 3 4 3 3 4 4 3 2 4 6 8 4 2 2 0 2 5 3 3 7 11 12 14 14 14 13 9 9 15 17 17 18
15 13 13 12 9 4 3 6 9 4 7 3 5 5 5 6 9 14 7 8 11 6 3 3 6 5 11 4 4 4 6 7 10 9 2 2 3 4 3 3 11 12 14 15 15 12 13 15 15 17 16 17 15 17
15 16 16 15 9 4 4 4 5 4 4 4 5 9 9 8 9 10 9 7 5 3 6 6 9 8 3 3 3 7 10 8 10 3 1 2 2 5 2 8 11 15 16 15 14 15 14 12 13 16 16 15 17 16
11 17 16 15 8 12 4 3 4 4 4 5 3 6 5 6 11 13 8 8 7 4 6 10 9 7 8 11 13 15 16 12 11 4 3 4 2 7 5 14 19 14 11 10 9 9 14 13 14 15 17 17 16 18
7 8 7 13 9 6 5 9 5 3 4 5 6 6 6 5 4 8 6 5 5 6 7 8 10 10 10 10 11 19 22 23 8 6 9 9 3 3 4 9 13 5 8 11 13 12 13 15 14 15 15 14 14 16
8 7 4 7 5 6 5 8 6 5 5 4 2 4 4 3 2 7 3 4 4 4 11 13 16 18 12 17 17 19 24 12 6 8 12 9 11 12 12 8 4 8 6 7 12 15 16 16 15 14 13 15 15 15
14 5 3 4 6 5 3 4 4 3 4 3 4 5 3 2 5 2 2 3 4 6 9 11 11 7 6 9 9 8 10 13 11 13 17 14 6 9 14 5 5 5 10 12 14 13 15 15 14 15 17 17 17 17
3 4 4 6 4 4 4 4 5 4 5 4 3 4 1 4 3 3 2 1 2 5 7 7 7 7 8 5 3 6 15 20 14 6 16 19 16 7 2 2 2 4 7 9 11 15 15 15 15 17 17 15 17 16
6 7 7 5 3 4 4 3 3 4 4 3 3 2 1 1 2 3 3 3 1 3 5 8 8 6 5 3 4 3 11 17 23 11 15 21 20 15 7 4 3 3 8 8 13 14 14 13 16 17 16 14 17 16
4 5 5 4 3 2 3 3 4 4 4 3 2 2 2 3 4 3 3 2 2 2 8 12 12 9 6 8 12 16 19 20 19 19 18 19 19 18 16 14 10 13 15 16 15 10 11 12 14 15 14 14 18 17
5 3 5 3 4 3 4 3 4 3 2 3 2 2 2 3 3 3 2 9 6 6 9 9 10 17 21 18 19 21 18 13 14 18 17 13 12 11 11 8 9 12 8 4 1 3 7 10 12 12 12 14 15 13
4 3 2 5 5 4 4 4 3 3 3 2 1 2 1 1 3 3 5 8 6 14 14 13 15 19 19 18 21 23 20 19 17 9 6 3 3 9 11 10 10 7 5 5 6 6 8 11 11 8 9 10 9 10
4 5 4 5 4 3 2 2 3 3 2 1 1 0 2 2 9 14 6 5 8 10 12 17 18 19 14 16 15 13 14 17 20 18 6 4 6 8 8 7 10 15 12 10 9 7 10 11 10 9 7 9 10 9
2 4 3 2 2 2 2 3 3 2 3 4 4 3 2 2 4 19 17 9 15 20 20 16 15 18 21 17 14 12 6 7 12 13 17 17 15 12 10 9 11 13 13 12 11 12 13 12 12 12 12 12 10 9
3 4 4 1 2 3 1 2 2 3 4 4 4 3 3 4 4 5 15 5 10 11 13 17 17 10 15 14 12 13 17 18 21 20 20 20 18 17 16 14 14 14 14 14 13 13 13 10 10 11 11 10 8 8
3 2 2 3 1 2 2 1 2 1 3 3 3 3 2 0 3 2 9 6 8 14 17 16 16 16 15 17 20 20 20 20 19 18 17 19 18 15 17 16 14 12 11 10 9 9 9 11 12 12 13 13 13 13
Wind_Direction
294 306 304 311 317 322 331 336 335 337 338 340 339 339 338 339 338 336 296 290 242 242 278 264 268 261 264 203 269 305 343 359 13 96 170 260 238 260 304 251 224 232 281 247 251 267 289 10 4 353 276 305 301 305
284 292 299 309 311 312 321 332 334 330 331 332 334 333 334 332 328 326 281 289 264 219 265 285 277 266 255 258 261 227 219 212 226 116 225 269 263 262 243 281 203 256 200 255 209 237 245 348 296 284 300 301 302 302
275 288 301 304 306 309 312 320 327 326 327 330 331 331 331 329 326 313 285 284 231 262 272 280 254 283 253 242 232 201 242 213 220 185 165 211 251 216 243 234 239 264 153 235 359 251 251 289 297 294 294 306 306 302
272 282 291 301 304 306 313 313 322 322 323 327 330 331 332 331 343 333 303 306 273 284 289 286 314 287 290 262 238 211 217 142 119 142 195 192 217 186 240 257 252 256 170 238 251 278 291 273 261 312 322 316 307 310
263 274 281 292 302 303 308 313 318 318 322 326 330 332 335 344 334 328 308 296 273 294 281 293 304 282 305 305 240 221 196 146 161 174 210 221 216 239 239 248 240 179 203 209 256 223 258 277 293 350 323 320 314 318
259 268 274 284 294 299 302 309 314 318 320 323 328 331 341 349 330 338 303 42 79 226 308 297 298 293 308 320 237 184 185 149 171 191 208 213 203 202 260 259 245 210 202 212 235 190 240 274 326 336 323 319 325 324
259 262 270 278 287 292 297 307 312 315 318 321 323 326 319 324 313 283 263 275 302 283 256 293 289 290 309 322 72 79 158 184 177 225 228 214 191 199 245 261 257 232 235 214 222 272 277 237 316 339 322 328 332 322
268 264 270 274 280 285 297 305 310 313 315 319 322 323 299 307 293 277 293 255 261 255 252 274 287 318 360 313 317 148 145 216 206 230 205 198 196 212 252 247 263 237 177 209 251 226 252 26 68 358 329 350 335 357
268 268 267 271 277 288 297 302 308 313 315 320 321 313 305 252 253 271 305 292 272 233 266 251 301 299 353 305 274 248 186 203 211 229 216 176 212 226 238 249 253 208 164 143 231 343 167 223 97 9 346 357 356 4
278 276 275 278 284 290 295 301 310 314 320 324 331 343 307 226 304 311 298 182 223 195 236 265 278 269 7 350 296 327 225 227 233 219 182 224 256 259 269 217 240 141 138 181 29 354 310 315 96 9 19 16 12 22
273 276 277 279 283 287 293 302 310 319 336 351 353 282 298 306 302 258 270 223 162 229 211 249 270 264 248 237 269 234 286 258 272 232 211 255 268 275 41 80 79 105 138 141 37 332 40 62 90 47 32 37 31 41
267 271 274 279 283 286 291 301 305 299 309 309 298 296 291 281 239 271 243 216 210 242 110 247 243 220 258 213 258 271 261 311 254 140 218 264 258 331 133 99 102 113 121 97 73 89 77 73 73 75 51 53 51 57
266 268 271 276 280 283 286 296 309 279 309 298 232 262 250 248 245 228 217 218 228 84 268 267 293 229 228 209 248 270 260 239 87 200 238 235 348 141 129 106 114 106 70 119 107 91 90 84 80 79 72 70 66 68
262 265 268 271 273 275 280 282 302 285 243 31 246 262 222 218 237 205 219 297 74 210 275 281 266 245 257 232 234 260 244 290 240 224 247 310 302 151 110 129 122 90 81 122 116 102 94 92 90 80 77 83 81 82
261 264 269 268 265 265 265 265 269 214 180 239 223 241 233 247 279 245 226 336 314 325 335 328 293 230 265 255 216 254 247 277 329 339 281 309 123 128 128 120 117 105 111 138 130 113 107 100 92 87 86 91 84 90
262 274 266 265 261 257 252 253 234 187 226 224 228 240 258 277 276 235 234 254 294 348 332 356 307 304 272 291 226 230 251 328 342 336 329 313 117 98 126 133 121 219 117 144 141 128 126 123 113 100 100 93 95 99
255 241 258 267 255 240 238 199 187 196 225 224 237 219 237 239 229 218 183 209 169 71 35 309 294 238 291 266 243 23 14 312 312 317 332 319 97 129 142 136 148 265 121 133 132 136 135 136 124 93 91 89 93 99
237 241 244 239 250 257 238 207 210 225 231 231 239 216 205 225 245 249 215 168 137 168 152 220 257 259 252 245 259 60 9 347 328 319 307 305 252 170 147 149 141 142 121 125 131 140 140 136 124 113 113 106 107 108
237 238 240 242 241 215 267 214 201 258 240 216 224 216 218 237 230 243 242 197 197 183 185 207 230 223 220 255 308 345 341 343 313 310 302 321 224 149 136 99 136 127 123 125 133 147 159 154 150 143 133 130 123 136
241 242 243 241 212 212 229 232 221 252 250 237 235 239 234 239 238 237 231 213 174 172 212 219 231 239 248 260 307 311 309 320 312 277 325 325 180 148 101 121 119 128 116 122 125 128 126 126 154 161 161 150 142 147
245 243 241 223 213 217 263 244 228 235 251 241 230 234 246 235 231 227 221 188 194 201 218 226 238 238 234 252 269 280 284 291 292 218 199 199 179 148 127 125 105 123 120 129 127 133 144 146 155 159 159 161 159 163
225 234 205 202 218 230 235 226 236 276 247 248 248 239 238 238 228 207 160 179 207 214 207 221 227 229 242 247 255 256 262 277 226 175 159 148 131 116 90 101 107 103 145 158 152 144 142 148 155 164 165 162 161 156
238 228 218 204 220 223 251 181 221 208 240 244 225 237 231 223 183 136 183 195 223 204 208 221 232 236 243 257 262 260 272 195 162 158 152 148 119 125 123 128 127 139 136 154 165 156 153 153 158 154 153 154 153 149
198 202 221 223 215 259 250 224 215 236 244 250 253 262 245 126 161 202 240 236 222 183 193 203 204 223 239 254 254 256 191 168 141 144 150 141 130 124 146 149 139 144 137 145 153 154 160 161 161 158 155 153 156 152
143 222 224 235 224 230 243 236 219 233 256 242 238 262 249 157 210 203 233 134 138 188 200 193 199 208 221 230 174 139 168 159 148 141 166 153 160 159 147 333 26 127 151 132 136 157 162 163 164 164 166 163 160 159
217 203 204 217 227 213 237 264 263 302 290 257 247 255 260 246 288 32 13 345 164 175 185 172 178 172 203 183 138 137 166 170 151 131 168 174 174 172 165 151 117 107 170 167 145 141 145 152 165 169 166 170 168 163
238 231 215 229 257 276 294 296 270 252 259 275 315 307 292 316 39 7 328 338 290 253 208 187 169 167 156 132 151 162 160 163 160 161 166 175 177 177 165 155 153 142 132 127 128 137 154 155 157 166 160 165 172 173
238 250 216 205 217 212 247 247 253 251 280 291 306 345 48 1 17 329 306 329 342 119 119 129 161 161 149 147 139 143 147 151 140 143 141 152 183 184 198 192 161 148 153 153 331 232 178 167 163 163 162 162 175 184
239 242 202 260 240 217 229 227 245 233 225 238 312 30 115 91 354 322 306 342 131 120 98 94 99 126 111 118 138 148 152 146 129 124 123 148 157 197 199 203 211 201 222 180 143 142 166 182 172 168 181 185 184 189
241 184 211 234 233 241 215 227 298 314 347 335 295 85 31 51 8 26 50 117 129 107 117 122 132 126 115 117 109 114 152 164 165 158 151 161 181 156 165 168 168 175 177 160 151 143 158 162 160 159 163 169 172 170
246 178 229 263 281 306 337 311 325 360 21 19 15 61 35 332 3 32 47 91 120 123 118 107 108 127 125 122 118 107 85 126 157 148 133 127 123 120 123 134 141 152 164 165 155 150 147 142 136 138 143 142 140 140
199 205 167 32 300 307 50 43 15 26 7 23 10 11 26 22 26 1 11 67 113 102 125 134 125 114 133 124 122 125 128 131 130 130 127 124 118 117 116 118 120 120 120 119 125 133 140 135 135 134 133 134 134 130
195 182 145 109 333 280 182 119 61 42 27 21 20 21 4 79 81 332 21 60 125 136 128 124 126 133 135 132 128 129 132 131 133 136 130 125 119 121 120 116 114 124 128 124 123 130 133 135 128 126 128 127 120 114